Погода в Выдрихе

Казахстан     50°31′05″N   82°10′24″E
темп.,
°C
ветер,
м/с
пор.,
м/с
влажн.,
%
обл.,
%
осадки,
мм/ч
давл.,
гПа
погр.,
м
1 марта, пн
пн100:00−9ююв71790100 2.3 1026766
03:00−8ююв71794100 2.2 1024773
06:00−8ююв71794100 5.8 1023805
09:00−7ю91794100 3.1 1023791
12:00−6ю91594100 6.4 1022776
15:00−4ю81395100 3.6 1020756
18:00−4ююв71396100 7.8 1020778
21:00−5ю71495100 4.3 1019778
2 марта, вт
вт200:00−4ю81596100 8.9 1020751
03:00−4ю71395100 3.2 1019635
06:00−4ююв51196100 5.1 1021512
09:00−4ююв51196100 1.2 1020536
12:00−3ю61195100 1.9 1019662
15:00−2ю61097100 2.0 1017667
18:00−2ююв51197100 5.0 1016663
21:00−2ю61297100 2.7 1016629
3 марта, ср
ср300:00−3ю51097100 5.3 1016523
03:00−2ююз2598100 3.6 1017246
06:00−3з4697100 5.1 1019257
09:00−10з5893100 0.7 1021486
12:00−11юз358786 0.7 1023500
15:00−10ю3589100 0.1 1024529
18:00−11ююв2396100 0.1 102529
21:00−12юв2293100 0.0 102621
4 марта, чт
чт400:00−11ююв3391100 0.0 102765
03:00−11ююв3785100 0.0 1027140
06:00−14ююв338286 0.0 102928
09:00−13юв348582 0.0 102889
12:00−7ююв5127584 0.0 1027619
15:00−4ю61279100 0.0 1026792
18:00−8ююв347988 0.0 102636
21:00−10юв347338 0.0 102642
5 марта, пт
пт500:00−11юв337158 0.0 102529
03:00−10юв3471100 0.0 102151
06:00−6юв62165100 0.0 1017458
09:00−5ююз5148396 2.2 1015716
12:00−2ююз10169498 8.5 1017867
15:00−1зюз81297100 1.0 1022869
18:00−1зюз51092100 1.4 1026578
21:00−6ю339787 0.1 102928